Flag for Austria Weather past 2 weeks in Bruck an der Mur, Styria, Austria

28 °F

Partly sunny.

Feels Like: 28 °F
Forecast: 33 / 47 °F
Wind: 1 mph from North

Location: Zeltweg

Current Time: Nov 29, 2015 at 10:44:44 AM

Latest Report: Nov 29, 2015 at 9:50 AM

Visibility: 31 mi

Pressure: 30.15 "Hg

Humidity: 74%

Dew point: 21 °F

Location of Bruck an der MurLocation

Historic Weather in Bruck an der Mur — Graph


Bruck an der Mur temperature yesterday

Maximum temperature yesterday: 43 °F (at 2:50 PM)
Minimum temperature yesterday: 25 °F (at 6:50 AM)
Average temperature yesterday: 34 °F

Past Weeks' High & Low Weather Summary

High70 °F (Nov 18, 1:20 PM)100% (Nov 14, 9:20 AM)30.36 "Hg (Nov 14, 9:20 AM)
Low14 °F (Nov 24, 6:50 AM)18% (Nov 18, 1:20 PM)29.33 "Hg (Nov 21, 5:50 PM)
Average38 °F72%29.92 "Hg
* Reported Nov 14 8:50 AM — Nov 29 8:50 AM, Bruck an der Mur, Weather by CustomWeather, © 2015

Note: Actual official high and low records may vary slightly from our data, if they occured in-between our weather recording intervals... More about our weather records


Bruck an der Mur weather history for previous 24 hours

Time TempWeatherWind HumidityBarometerVisibility
8:50 AM
Sun, Nov 29
25 °FScattered clouds.1 mph80%30.15 "Hg31 mi
7:50 AM25 °FBroken clouds.2 mph80%30.15 "Hg25 mi
6:50 AM27 °FPassing clouds.2 mph74%30.12 "Hg19 mi
5:50 AM28 °FPassing clouds.6 mph69%30.12 "Hg19 mi
4:50 AM30 °FPartly cloudy.7 mph64%30.09 "Hg19 mi
9:50 PM
Sat, Nov 28
34 °FPartly cloudy.2 mph70%30.01 "Hg19 mi
7:50 PM34 °FPartly cloudy.3 mph70%29.95 "Hg19 mi
6:50 PM34 °FPartly cloudy.2 mph70%29.92 "Hg19 mi
5:50 PM36 °FPartly cloudy.2 mph60%29.89 "Hg19 mi
4:50 PM36 °FPartly cloudy.5 mph60%29.89 "Hg19 mi
3:50 PM39 °FPartly sunny.3 mph52%29.83 "Hg19 mi
2:50 PM43 °FBroken clouds.3 mph49%29.83 "Hg19 mi
1:50 PM41 °FPartly sunny.5 mph57%29.80 "Hg19 mi
12:50 PM39 °FScattered clouds.2 mph61%29.77 "Hg19 mi
11:50 AM37 °FPassing clouds.3 mph65%29.80 "Hg19 mi
10:50 AM37 °FPassing clouds.1 mph60%29.80 "Hg19 mi
Weather by CustomWeather, © 2015

See weather overviewHow to use our weather pages